User: anonymous   Login
Location: Ostrava
(49.8330°N, 18.2830°E)
Time: 01:25:31
(UTC+02:00)
Language:

Cosmos 1400 Rocket - Orbit

View from above orbital plane
View from above orbital plane
View from above satellite
View from above satellite

Ground track
Ground track

The orbit data is extracted from the following two-line orbital elements,

1 13403U 82079B   15245.89072747 +.00001238 +00000-0 +83383-4 0  9991
2 13403 081.1696 297.1545 0033706 269.9367 089.7993 15.05545157798162
Epoch (UTC): 02 September 2015 21:22:38
Eccentricity: 0.0033706
inclination: 81.1696°
perigee height: 526 km
apogee height: 573 km
right ascension of ascending node: 297.1545°
argument of perigee: 269.9367°
revolutions per day: 15.05545157
mean anomaly at epoch: 89.7993°
orbit number at epoch: 79816

The dashed part of the orbit path shows where the satellite is in the earth's shadow,  

DLR